VE7KNL-13 Weather Reports


Display with metric or nautical units.
time (UTC)temp
F
wind
direction
speed
MPH
gust
MPH
rain 1hr
in
rain 24hr
in
rain mn
in
humidity
%
barometer
mb
20260506195018 75 315 1.0 5.0 0.00 0.00 0.00 33 1007.7
20260506194018 74 293 1.0 3.0 0.00 0.00 0.00 34 1007.8
20260506193017 74 0.0 1.0 0.00 0.00 0.00 38 1007.8
20260506192038 74 135 1.0 4.0 0.00 0.00 0.00 34 1007.9
20260506191038 73 90 1.0 4.0 0.00 0.00 0.00 36 1008.0
20260506190019 74 270 2.0 5.0 0.00 0.00 0.00 34 1008.1
20260506185017 73 68 1.0 5.0 0.00 0.00 0.00 37 1008.4
20260506184017 72 113 1.0 5.0 0.00 0.00 0.00 37 1008.5
20260506183038 71 45 2.0 4.0 0.00 0.00 0.00 37 1008.5
20260506182017 70 0.0 4.0 0.00 0.00 0.00 37 1008.9
20260506181038 70 23 1.0 3.0 0.00 0.00 0.00 38 1009.1
20260506180017 69 45 2.0 4.0 0.00 0.00 0.00 40 1009.1
20260506175038 68 45 2.0 4.0 0.00 0.00 0.00 40 1009.1
20260506174018 68 45 2.0 6.0 0.00 0.00 0.00 41 1009.6
20260506173018 67 0.0 3.0 0.00 0.00 0.00 42 1009.6
20260506172017 65 23 1.0 3.0 0.00 0.00 0.00 41 1009.6
20260506171017 64 0.0 2.0 0.00 0.00 0.00 43 1009.8
20260506170017 63 90 2.0 5.0 0.00 0.00 0.00 44 1009.8
20260506165017 63 45 1.0 4.0 0.00 0.00 0.00 45 1010.0
20260506164037 61 45 1.0 3.0 0.00 0.00 0.00 47 1010.1
20260506163017 60 0.0 4.0 0.00 0.00 0.00 48 1010.1
20260506162039 58 0.0 3.0 0.00 0.00 0.00 50 1010.4
20260506161017 57 68 1.0 3.0 0.00 0.00 0.00 53 1010.4
20260506160017 57 0.0 3.0 0.00 0.00 0.00 53 1010.5
20260506155017 56 45 2.0 3.0 0.00 0.00 0.00 53 1010.8
20260506154017 55 68 1.0 3.0 0.00 0.00 0.00 56 1010.8
20260506153017 53 68 1.0 3.0 0.00 0.00 0.00 60 1011.0
20260506152017 52 90 1.0 2.0 0.00 0.00 0.00 62 1011.0
20260506151037 51 0.0 3.0 0.00 0.00 0.00 62 1011.0
20260506150017 51 0.0 2.0 0.00 0.00 0.00 62 1011.3
20260506145017 51 158 1.0 4.0 0.00 0.00 0.00 64 1011.3
20260506144057 49 0.0 0.0 0.00 0.00 0.00 65 1011.3
20260506143017 48 0.0 1.0 0.00 0.00 0.00 66 1011.6
20260506142017 46 0.0 0.0 0.00 0.00 0.00 71 1011.6
20260506141017 44 0.0 1.0 0.00 0.00 0.00 78 1011.6
20260506140017 42 0.0 0.0 0.00 0.00 0.00 82 1011.6
20260506135017 40 0.0 0.0 0.00 0.00 0.00 86 1011.4
20260506134017 38 0.0 0.0 0.00 0.00 0.00 88 1011.1
20260506133017 38 0.0 0.0 0.00 0.00 0.00 87 1011.3
20260506132018 38 0.0 0.0 0.00 0.00 0.00 87 1011.2
20260506131017 38 0.0 0.0 0.00 0.00 0.00 86 1011.1
20260506130017 38 0.0 0.0 0.00 0.00 0.00 86 1011.1
20260506125017 38 0.0 0.0 0.00 0.00 0.00 86 1011.0
20260506124017 38 0.0 0.0 0.00 0.00 0.00 86 1011.0
20260506123017 38 0.0 0.0 0.00 0.00 0.00 86 1011.0
20260506122017 38 0.0 0.0 0.00 0.00 0.00 86 1010.9
20260506121037 38 0.0 0.0 0.00 0.00 0.00 85 1010.7
20260506120017 38 0.0 0.0 0.00 0.00 0.00 84 1010.9
20260506115016 38 0.0 0.0 0.00 0.00 0.00 84 1010.9
20260506114037 39 0.0 0.0 0.00 0.00 0.00 83 1010.9
20260506113016 39 0.0 0.0 0.00 0.00 0.00 83 1011.0
20260506112016 39 0.0 0.0 0.00 0.00 0.00 84 1011.0
20260506111016 39 0.0 0.0 0.00 0.00 0.00 83 1010.8
20260506110017 39 0.0 0.0 0.00 0.00 0.00 83 1010.6
20260506105017 39 0.0 0.0 0.00 0.00 0.00 82 1010.6
20260506104016 39 0.0 0.0 0.00 0.00 0.00 82 1010.6
20260506103037 40 0.0 1.0 0.00 0.00 0.00 81 1010.6
20260506102016 40 0.0 0.0 0.00 0.00 0.00 80 1010.6
20260506101018 40 0.0 0.0 0.00 0.00 0.00 80 1010.6
20260506100017 40 0.0 0.0 0.00 0.00 0.00 80 1010.4
20260506095016 41 0.0 0.0 0.00 0.00 0.00 79 1010.5
20260506094016 41 0.0 0.0 0.00 0.00 0.00 79 1010.6
20260506093016 41 0.0 0.0 0.00 0.00 0.00 78 1010.4
20260506092016 41 0.0 0.0 0.00 0.00 0.00 78 1010.4
20260506091016 41 0.0 0.0 0.00 0.00 0.00 78 1010.4
20260506090036 42 0.0 0.0 0.00 0.00 0.00 77 1010.5
20260506085016 42 0.0 0.0 0.00 0.00 0.00 78 1010.5
20260506084016 42 0.0 0.0 0.00 0.00 0.00 77 1010.4
20260506083016 42 0.0 0.0 0.00 0.00 0.00 76 1010.4
20260506082016 43 0.0 0.0 0.00 0.00 0.00 75 1010.1
20260506081016 43 0.0 0.0 0.00 0.00 0.00 75 1009.9
20260506073018 45 0.0 0.0 0.00 0.00 0.00 72 1010.0
20260506072016 45 0.0 0.0 0.00 0.00 0.00 71 1010.0
20260506071018 45 0.0 0.0 0.00 0.00 0.00 70 1009.8
20260506062038 48 0.0 0.0 0.00 0.00 0.00 66 1009.4
20260506061057 48 0.0 0.0 0.00 0.00 0.00 66 1009.4
20260506051017 52 0.0 0.0 0.00 0.00 0.00 60 1008.8
20260506045017 53 0.0 1.0 0.00 0.00 0.00 58 1008.5
20260506044017 54 0.0 0.0 0.00 0.00 0.00 57 1008.4
20260506043017 55 0.0 0.0 0.00 0.00 0.00 54 1008.2
20260506042017 55 0.0 0.0 0.00 0.00 0.00 53 1008.1
20260506041017 56 0.0 0.0 0.00 0.00 0.00 52 1007.8
20260506040017 57 0.0 0.0 0.00 0.00 0.00 51 1007.7
20260506035017 58 0.0 0.0 0.00 0.00 0.00 50 1007.5
20260506034017 59 0.0 0.0 0.00 0.00 0.00 50 1007.4
20260506033017 60 0.0 1.0 0.00 0.00 0.00 49 1007.3
20260506032017 61 0.0 0.0 0.00 0.00 0.00 46 1007.0
20260506031037 62 0.0 0.0 0.00 0.00 0.00 45 1006.8
20260506030017 64 0.0 0.0 0.00 0.00 0.00 44 1006.5
20260506025017 65 225 1.0 3.0 0.00 0.00 0.00 41 1006.4
20260506024016 67 0.0 2.0 0.00 0.00 0.00 36 1006.4
20260506023016 70 0.0 2.0 0.00 0.00 0.00 32 1006.1
20260506022037 71 23 1.0 4.0 0.00 0.00 0.00 27 1006.2
20260506021017 72 0.0 3.0 0.00 0.00 0.00 27 1006.3
20260506020057 73 23 3.0 7.0 0.00 0.00 0.00 20 1006.0
20260506015017 74 23 4.0 7.0 0.00 0.00 0.00 21 1006.2
20260506014016 74 45 2.0 8.0 0.00 0.00 0.00 19 1006.1
20260506013016 75 23 3.0 8.0 0.00 0.00 0.00 19 1006.1
20260506012016 75 45 2.0 6.0 0.00 0.00 0.00 20 1006.1
20260506011016 76 45 2.0 7.0 0.00 0.00 0.00 20 1006.2
20260506010017 76 90 2.0 5.0 0.00 0.00 0.00 19 1006.2
20260506005016 76 45 1.0 4.0 0.00 0.00 0.00 21 1006.2
20260506004017 76 68 2.0 7.0 0.00 0.00 0.00 21 1006.2
20260506003016 76 113 1.0 4.0 0.00 0.00 0.00 19 1006.1
20260506002016 76 90 1.0 5.0 0.00 0.00 0.00 21 1006.2
20260506001016 77 113 1.0 5.0 0.00 0.00 0.00 22 1006.3
20260506000036 78 270 1.0 5.0 0.00 0.00 0.00 21 1006.4
20260505235057 78 0.0 2.0 0.00 0.00 0.00 20 1006.5
20260505234016 79 225 1.0 6.0 0.00 0.00 0.00 21 1006.7
20260505233016 79 0.0 3.0 0.00 0.00 0.00 21 1006.7
20260505232018 79 113 1.0 4.0 0.00 0.00 0.00 21 1007.1
20260505231016 79 0.0 2.0 0.00 0.00 0.00 21 1007.3
20260505230016 79 90 1.0 4.0 0.00 0.00 0.00 20 1007.2
20260505225016 79 0 1.0 3.0 0.00 0.00 0.00 20 1007.2
20260505224016 78 68 2.0 8.0 0.00 0.00 0.00 21 1007.4
20260505223016 77 0.0 2.0 0.00 0.00 0.00 20 1007.4
20260505222016 77 135 3.0 6.0 0.00 0.00 0.00 21 1007.7
20260505221016 77 0 1.0 7.0 0.00 0.00 0.00 20 1007.6
20260505220036 76 45 3.0 6.0 0.00 0.00 0.00 21 1007.6
20260505215037 76 68 1.0 4.0 0.00 0.00 0.00 22 1007.8
20260505214016 75 45 1.0 4.0 0.00 0.00 0.00 23 1008.0
20260505213036 75 113 3.0 9.0 0.00 0.00 0.00 22 1007.9
20260505212018 75 90 3.0 6.0 0.00 0.00 0.00 24 1008.2
20260505211018 74 90 3.0 6.0 0.00 0.00 0.00 24 1008.5
20260505210038 74 68 2.0 7.0 0.00 0.00 0.00 26 1008.5
20260505205018 74 68 3.0 9.0 0.00 0.00 0.00 27 1008.6
20260505204018 74 45 5.0 8.0 0.00 0.00 0.00 29 1008.8
20260505203018 73 45 3.0 7.0 0.00 0.00 0.00 28 1008.8
20260505202018 74 45 3.0 7.0 0.00 0.00 0.00 28 1009.0
20260505201018 74 45 2.0 6.0 0.00 0.00 0.00 29 1009.1
20260505200018 73 45 1.0 6.0 0.00 0.00 0.00 27 1009.1